Temp
-7 -7 -6 -6 -7 -7 -7 -7 -7 -7 -8 -8 -8 -8 -8 -9 -9 -8 -9 -9 -9 -10 -10 -10 -10 -10 -10 -10 -9 -9 -9 -9 -9 -9 -9 -9 -9 -8 -8 -8 -8 -8 -7
-6 -6 -7 -7 -7 -7 -7 -6 -7 -6 -7 -7 -8 -7 -8 -8 -8 -9 -9 -9 -9 -9 -9 -9 -10 -10 -10 -10 -9 -9 -9 -9 -8 -8 -8 -8 -8 -8 -8 -8 -8 -7 -7
-7 -6 -6 -6 -6 -7 -6 -6 -7 -7 -7 -7 -8 -7 -7 -8 -8 -8 -8 -8 -8 -9 -9 -9 -9 -9 -10 -9 -9 -9 -9 -8 -8 -8 -8 -8 -8 -8 -8 -8 -8 -7 -7
-7 -7 -6 -6 -7 -7 -6 -7 -7 -7 -8 -7 -7 -7 -7 -7 -7 -7 -8 -8 -8 -8 -9 -9 -9 -9 -9 -9 -9 -9 -8 -8 -8 -8 -8 -8 -8 -8 -8 -7 -7 -8 -8
-7 -7 -6 -6 -6 -7 -7 -7 -7 -7 -8 -7 -7 -7 -7 -7 -8 -7 -7 -8 -8 -8 -8 -9 -9 -9 -9 -9 -9 -9 -8 -8 -8 -8 -8 -8 -8 -7 -8 -8 -8 -8 -7
-7 -7 -6 -6 -7 -7 -7 -7 -7 -7 -7 -7 -7 -7 -7 -7 -8 -7 -7 -7 -7 -8 -8 -8 -9 -9 -9 -8 -8 -8 -8 -8 -8 -8 -8 -8 -7 -7 -7 -7 -7 -7 -7
-7 -7 -6 -6 -7 -7 -8 -7 -7 -7 -8 -7 -7 -7 -8 -7 -8 -8 -8 -8 -8 -8 -8 -8 -9 -9 -8 -8 -8 -8 -7 -8 -8 -8 -7 -7 -7 -7 -7 -7 -7 -7 -7
-7 -6 -7 -7 -7 -7 -7 -7 -7 -6 -7 -7 -7 -7 -7 -8 -8 -8 -8 -8 -8 -8 -8 -8 -8 -9 -8 -8 -7 -7 -7 -7 -7 -7 -7 -7 -6 -6 -6 -6 -6 -7 -6
-6 -6 -6 -7 -7 -7 -8 -7 -7 -7 -8 -7 -7 -7 -7 -7 -7 -8 -7 -8 -8 -8 -7 -8 -8 -8 -8 -8 -8 -7 -7 -7 -7 -7 -7 -7 -7 -7 -7 -6 -6 -7 -7
-7 -6 -7 -7 -7 -7 -7 -8 -7 -7 -7 -7 -8 -7 -7 -7 -7 -7 -7 -8 -7 -7 -8 -4 -7 -8 -8 -8 -7 -7 -7 -7 -7 -7 -7 -7 -7 -7 -7 -7 -6 -6 -6
-7 -7 -7 -7 -6 -7 -7 -7 -7 -8 -7 -7 -8 -7 -6 -7 -7 -7 -7 -7 -7 -7 -7 -8 -7 -8 -8 -8 -7 -7 -7 -7 -6 -7 -7 -7 -7 -7 -7 -6 -6 -6 -6
-6 -7 -7 -7 -7 -6 -6 -7 -7 -7 -7 -7 -7 -7 -6 -6 -7 -7 -7 -7 -7 -7 -6 -7 -7 -8 -8 -8 -7 -7 -7 -7 -7 -7 -7 -6 -7 -7 -6 -6 -6 -6 -6
-7 -7 -8 -7 -7 -8 -7 -7 -7 -7 -7 -7 -7 -7 -6 -6 -6 -7 -7 -7 -6 -7 -6 -6 -7 -7 -7 -7 -7 -7 -7 -7 -7 -7 -7 -7 -7 -7 -6 -6 -6 -6 -6
-7 -7 -7 -8 -8 -8 -8 -8 -7 -7 -7 -7 -7 -7 -7 -6 -7 -7 -7 -7 -7 -7 -7 -7 -7 -7 -7 -7 -7 -7 -7 -7 -7 -7 -6 -6 -6 -6 -6 -6 -6 -6 -6
-7 -7 -7 -7 -6 -7 -7 -8 -7 -8 -7 -8 -8 -8 -8 -7 -7 -7 -7 -7 -7 -7 -7 -7 -7 -7 -7 -7 -7 -7 -7 -7 -6 -6 -6 -6 -6 -6 -6 -6 -6 -6 -6
-7 -7 -6 -7 -7 -7 -7 -7 -7 -8 -8 -8 -7 -7 -7 -7 -7 -6 -7 -7 -6 -7 -7 -7 -7 -7 -8 -7 -8 -7 -6 -6 -6 -6 -6 -6 -6 -6 -6 -6 -6 -6 -6
-7 -7 -7 -7 -6 -6 -7 -7 -7 -7 -7 -7 -8 -8 -7 -7 -7 -7 -7 -7 -6 -6 -7 -7 -7 -7 -8 -7 -7 -7 -6 -6 -6 -6 -6 -6 -6 -6 -6 -6 -6 -6 -6
-7 -7 -7 -7 -7 -7 -6 -7 -7 -7 -7 -7 -7 -7 -8 -7 -7 -7 -7 -7 -6 -7 -7 -7 -6 -6 -7 -7 -7 -6 -6 -7 -7 -7 -7 -6 -6 -6 -6 -6 -6 -6 -6
-7 -7 -7 -7 -7 -7 -7 -7 -6 -7 -7 -7 -7 -7 -8 -8 -8 -7 -8 -8 -7 -7 -7 -7 -7 -7 -7 -7 -6 -6 -6 -7 -7 -7 -6 -6 -6 -6 -6 -6 -6 -6 -6
-6 -7 -7 -7 -7 -7 -7 -7 -7 -6 -7 -7 -7 -7 -7 -7 -7 -7 -7 -7 -8 -7 -7 -7 -7 -7 -7 -8 -7 -6 -6 -6 -6 -6 -7 -7 -6 -6 -6 -6 -6 -6 -6
-7 -7 -7 -7 -7 -7 -7 -7 -7 -7 -6 -6 -6 -6 -7 -7 -7 -8 -7 -8 -8 -7 -7 -7 -7 -7 -7 -6 -6 -7 -6 -6 -6 -6 -6 -6 -6 -6 -6 -6 -7 -6 -6
-7 -7 -7 -7 -7 -7 -7 -7 -7 -6 -6 -6 -6 -6 -6 -6 -7 -7 -7 -8 -7 -7 -7 -7 -7 -7 -7 -7 -7 -6 -7 -7 -7 -7 -6 -6 -6 -6 -6 -6 -7 -6 -6
-7 -7 -8 -8 -8 -8 -7 -7 -7 -7 -6 -6 -6 -6 -6 -6 -6 -7 -7 -6 -7 -7 -7 -7 -7 -8 -7 -7 -7 -7 -7 -7 -7 -7 -7 -7 -6 -6 -6 -6 -6 -6 -6
-7 -7 -8 -8 -8 -8 -8 -7 -7 -7 -7 -7 -6 -6 -6 -6 -6 -6 -6 -6 -6 -6 -6 -7 -7 -8 -8 -8 -7 -7 -7 -6 -7 -7 -8 -7 -7 -7 -6 -6 -7 -6 -6
-8 -8 -8 -8 -8 -8 -8 -8 -7 -7 -7 -7 -7 -6 -6 -6 -7 -7 -6 -6 -6 -7 -6 -6 -7 -7 -7 -7 -7 -7 -7 -7 -7 -7 -7 -7 -7 -7 -6 -6 -6 -6 -7
-8 -8 -8 -8 -8 -8 -8 -8 -8 -8 -7 -7 -7 -6 -6 -6 -6 -7 -7 -6 -6 -7 -7 -6 -6 -6 -7 -7 -8 -7 -7 -7 -7 -7 -8 -6 -7 -7 -6 -6 -6 -7 -7
Height
5914 5915 5914 5914 5913 5910 5914 5912 5911 5912 5911 5910 5915 5917 5916 5915 5915 5915 5916 5913 5911 5914 5917 5917 5916 5917 5919 5919 5921 5922 5924 5926 5927 5926 5926 5927 5928 5929 5930 5932 5934 5935 5936
5913 5914 5913 5913 5914 5914 5910 5913 5911 5911 5914 5913 5913 5915 5915 5915 5913 5910 5914 5913 5914 5915 5917 5916 5917 5918 5918 5920 5921 5923 5925 5926 5927 5928 5928 5928 5929 5930 5931 5933 5934 5935 5937
5910 5911 5912 5913 5911 5910 5911 5913 5913 5912 5913 5914 5914 5915 5916 5915 5911 5913 5912 5914 5915 5918 5917 5916 5918 5920 5919 5920 5921 5923 5925 5927 5928 5929 5929 5930 5931 5931 5932 5933 5935 5937 5938
5909 5911 5911 5911 5911 5911 5911 5912 5912 5912 5913 5913 5916 5915 5915 5914 5914 5912 5914 5914 5918 5920 5919 5917 5917 5921 5921 5920 5922 5924 5926 5927 5929 5930 5931 5932 5932 5933 5934 5934 5936 5938 5938
5911 5911 5913 5911 5912 5913 5912 5912 5911 5911 5912 5912 5912 5913 5915 5916 5917 5919 5917 5917 5919 5920 5919 5919 5918 5919 5921 5923 5924 5925 5926 5928 5929 5931 5932 5933 5934 5934 5935 5936 5936 5937 5938
5913 5914 5914 5912 5912 5911 5912 5912 5912 5912 5913 5912 5912 5911 5915 5917 5918 5920 5921 5919 5918 5918 5919 5919 5919 5920 5920 5922 5926 5928 5928 5928 5930 5931 5933 5934 5934 5935 5935 5936 5936 5937 5938
5911 5912 5912 5911 5910 5910 5911 5912 5911 5911 5912 5911 5910 5911 5913 5915 5916 5917 5918 5920 5918 5915 5917 5919 5919 5920 5922 5923 5925 5928 5928 5929 5929 5930 5932 5933 5934 5934 5935 5935 5936 5937 5938
5908 5908 5907 5908 5908 5908 5909 5909 5907 5904 5908 5908 5908 5907 5909 5912 5913 5914 5913 5914 5917 5917 5915 5917 5918 5920 5922 5923 5925 5927 5928 5929 5930 5930 5931 5932 5934 5935 5936 5936 5937 5937 5937
5910 5909 5906 5907 5907 5905 5905 5907 5908 5907 5906 5905 5903 5904 5906 5906 5904 5909 5910 5910 5910 5913 5913 5916 5918 5920 5923 5923 5924 5927 5928 5929 5930 5931 5931 5932 5933 5934 5935 5936 5936 5936 5937
5911 5909 5907 5906 5907 5906 5904 5903 5906 5906 5904 5902 5900 5901 5905 5906 5905 5908 5907 5908 5908 5908 5912 5910 5917 5919 5920 5923 5923 5925 5926 5928 5930 5931 5931 5931 5932 5933 5934 5935 5936 5936 5936
5905 5900 5899 5905 5904 5902 5901 5902 5903 5903 5902 5902 5900 5900 5903 5905 5906 5903 5904 5905 5905 5909 5911 5915 5915 5916 5919 5919 5921 5922 5924 5926 5929 5930 5931 5931 5931 5933 5933 5934 5935 5935 5935
5892 5881 5891 5900 5901 5900 5895 5896 5899 5898 5897 5900 5900 5900 5901 5903 5904 5903 5899 5900 5902 5906 5909 5910 5912 5911 5914 5917 5919 5921 5922 5925 5927 5928 5929 5930 5931 5931 5932 5933 5933 5934 5934
5902 5896 5897 5900 5898 5900 5897 5898 5898 5898 5895 5898 5898 5896 5897 5899 5899 5898 5899 5896 5898 5902 5909 5908 5912 5915 5911 5914 5916 5918 5919 5922 5925 5927 5929 5930 5930 5930 5931 5931 5932 5932 5932
5904 5903 5902 5900 5901 5901 5900 5898 5898 5897 5896 5893 5894 5894 5895 5895 5894 5892 5895 5895 5899 5900 5906 5907 5910 5915 5915 5915 5914 5917 5919 5920 5922 5924 5926 5927 5928 5929 5929 5930 5930 5929 5930
5903 5904 5902 5898 5897 5897 5897 5895 5896 5895 5893 5892 5892 5892 5892 5892 5892 5891 5893 5894 5896 5892 5900 5903 5908 5912 5912 5912 5913 5913 5916 5918 5920 5921 5923 5924 5925 5926 5926 5926 5927 5927 5926
5900 5900 5899 5898 5896 5895 5894 5894 5893 5891 5891 5889 5889 5889 5889 5887 5887 5889 5890 5891 5891 5893 5896 5899 5903 5904 5906 5907 5905 5902 5911 5913 5916 5917 5918 5919 5920 5921 5922 5922 5922 5922 5922
5896 5896 5893 5893 5893 5892 5891 5890 5889 5888 5888 5886 5885 5885 5885 5883 5881 5883 5885 5887 5888 5888 5889 5892 5895 5897 5899 5902 5903 5905 5908 5907 5909 5911 5912 5913 5915 5916 5916 5917 5917 5917 5917
5891 5890 5890 5889 5888 5887 5886 5886 5885 5885 5884 5883 5880 5880 5879 5878 5879 5879 5880 5882 5883 5882 5881 5882 5886 5889 5892 5897 5902 5902 5902 5903 5903 5904 5905 5906 5908 5910 5911 5912 5912 5912 5912
5883 5883 5884 5884 5883 5882 5881 5880 5879 5879 5878 5878 5876 5875 5873 5873 5872 5870 5871 5871 5874 5877 5878 5878 5879 5883 5886 5892 5894 5894 5895 5896 5898 5899 5900 5900 5901 5902 5904 5906 5907 5906 5906
5876 5875 5874 5874 5875 5874 5872 5871 5871 5871 5871 5870 5870 5870 5869 5869 5863 5857 5861 5864 5865 5864 5862 5868 5871 5875 5878 5880 5883 5886 5888 5889 5889 5893 5895 5895 5896 5897 5899 5900 5900 5900 5899
5866 5864 5863 5862 5863 5864 5863 5862 5861 5862 5862 5863 5862 5861 5861 5860 5856 5852 5848 5850 5858 5859 5858 5859 5863 5867 5871 5874 5877 5876 5879 5880 5883 5885 5887 5888 5889 5890 5891 5893 5894 5893 5893
5852 5852 5851 5850 5850 5851 5851 5850 5850 5851 5851 5852 5852 5851 5851 5852 5849 5846 5847 5848 5848 5850 5854 5856 5858 5859 5862 5864 5866 5868 5870 5873 5877 5879 5880 5882 5883 5884 5884 5885 5886 5886 5886
5840 5840 5838 5836 5836 5836 5836 5836 5836 5838 5839 5839 5840 5840 5840 5841 5842 5839 5839 5839 5841 5843 5846 5846 5850 5852 5853 5855 5857 5859 5861 5864 5868 5870 5872 5874 5874 5876 5877 5878 5879 5878 5877
5825 5825 5824 5823 5822 5823 5822 5822 5821 5823 5826 5827 5827 5826 5826 5826 5827 5829 5830 5832 5833 5835 5837 5838 5840 5842 5843 5844 5847 5850 5850 5849 5856 5860 5862 5866 5864 5866 5869 5871 5870 5871 5870
5810 5808 5807 5807 5807 5808 5808 5807 5806 5807 5809 5813 5813 5812 5812 5812 5812 5813 5816 5819 5822 5825 5825 5827 5830 5832 5834 5836 5837 5839 5842 5843 5847 5849 5852 5856 5857 5858 5860 5861 5861 5861 5861
5794 5792 5791 5790 5790 5791 5791 5791 5790 5790 5793 5795 5798 5799 5798 5799 5799 5800 5802 5805 5810 5813 5812 5813 5817 5821 5824 5825 5827 5830 5832 5835 5837 5842 5844 5843 5846 5847 5850 5852 5852 5851 5852
Wind_Speed
3 5 5 1 7 8 5 5 8 8 5 1 1 1 5 5 6 11 7 9 8 6 7 8 10 8 8 9 9 7 6 5 6 8 8 9 9 9 11 10 10 10 8
0 1 2 1 5 3 6 4 5 7 5 2 1 1 2 3 3 4 9 9 6 4 6 9 8 10 10 9 10 11 9 8 7 8 9 9 10 10 12 10 10 9 7
1 2 1 5 5 2 1 2 2 5 6 2 2 1 2 5 3 4 8 6 5 4 6 10 11 9 12 13 12 12 11 10 9 9 10 10 10 11 11 11 10 9 9
2 3 8 6 9 5 2 3 4 6 10 6 2 2 2 1 3 4 6 6 7 6 6 10 12 11 12 12 13 14 13 11 11 10 10 11 12 11 12 12 11 9 8
3 3 5 6 5 6 3 3 6 7 10 7 6 6 4 5 6 8 12 12 9 9 7 8 12 12 14 14 13 13 12 11 11 10 11 11 11 10 10 10 9 7 6
2 0 1 2 4 3 1 5 8 6 7 5 5 10 6 7 6 8 7 8 11 10 8 8 10 12 13 13 11 11 11 11 10 9 9 9 9 8 7 6 5 4 4
2 2 3 1 1 3 4 3 8 6 5 8 7 6 8 12 13 11 10 9 8 11 11 9 10 11 12 12 11 9 9 8 8 7 6 6 5 5 4 4 3 2 2
3 3 5 7 5 3 3 3 8 9 6 11 11 9 6 12 18 15 13 12 11 10 11 10 11 12 11 11 11 9 8 7 6 6 5 5 4 4 3 3 2 2 2
1 4 5 7 7 6 6 3 2 3 8 13 11 10 12 9 19 18 16 15 12 10 9 11 10 12 12 11 10 7 6 6 5 5 5 5 5 5 4 4 3 4 4
3 3 3 6 5 6 6 4 4 5 6 9 6 9 4 4 3 8 15 16 14 13 14 12 13 12 11 9 8 8 7 6 6 6 7 7 7 6 6 5 4 4 5
10 9 7 9 5 6 3 6 5 6 5 6 2 3 4 7 7 10 10 11 16 16 15 15 16 15 12 10 10 9 8 7 7 8 8 8 8 7 6 5 4 4 3
17 19 11 4 8 7 12 1 5 13 1 3 6 5 1 4 5 9 9 10 11 16 19 19 19 18 15 11 10 11 11 11 11 10 8 7 5 3 2 2 1 1 1
20 25 24 12 11 9 10 12 7 6 3 5 5 3 2 2 2 4 5 3 11 20 19 17 15 17 17 14 14 13 13 10 8 7 5 3 1 2 3 3 4 5 6
18 17 17 15 15 10 9 9 10 5 8 5 8 6 4 3 2 8 7 5 6 14 20 19 18 17 13 11 15 12 11 10 8 6 5 4 5 6 8 9 8 7 7
19 15 14 16 16 15 13 8 11 10 13 12 9 8 10 9 8 8 6 5 6 14 17 18 21 23 16 13 13 14 14 11 9 7 6 6 8 8 9 10 10 10 10
20 20 18 14 13 14 12 11 11 11 10 15 13 11 8 11 10 13 11 8 6 11 15 17 22 21 19 16 18 18 17 15 12 9 8 10 11 11 12 12 12 13 13
23 22 22 21 18 15 14 14 14 12 11 15 16 13 14 16 11 13 14 13 12 14 18 22 16 22 19 18 20 21 21 18 16 14 13 13 14 14 14 15 15 16 16
27 27 26 25 25 22 19 17 18 17 16 17 16 15 17 18 17 19 19 18 15 14 21 21 19 21 16 20 24 26 22 22 20 18 16 15 15 14 17 17 17 19 21
33 31 31 30 30 29 25 24 22 21 20 20 20 21 17 17 22 24 23 23 21 20 23 21 28 30 27 25 31 26 27 24 22 21 21 20 19 19 20 19 20 21 23
35 35 34 32 31 32 33 31 28 25 25 25 25 25 24 24 29 32 34 24 23 22 27 23 21 27 28 28 31 31 32 32 29 25 22 24 25 25 25 24 23 24 24
38 39 38 38 36 35 35 35 34 31 28 28 29 30 29 30 32 30 32 18 23 24 22 28 22 24 28 29 31 32 31 32 29 29 27 26 29 27 27 27 27 26 25
44 43 43 43 42 40 38 38 38 36 32 30 31 33 34 33 34 34 29 32 20 22 25 27 28 31 28 29 31 31 31 32 32 30 32 30 28 26 28 28 27 27 26
48 46 46 46 46 45 43 42 41 37 35 36 36 37 38 39 39 38 36 35 28 28 24 31 31 30 31 33 36 33 34 34 34 34 33 32 32 30 30 28 30 29 28
52 50 47 47 47 46 46 46 44 41 38 38 39 39 40 42 44 44 42 39 37 34 35 33 31 36 36 39 37 36 38 34 33 34 32 32 36 33 32 28 28 28 28
49 49 48 47 46 46 46 47 48 47 45 41 40 40 40 41 43 47 48 45 42 42 40 39 38 36 41 41 39 39 37 38 34 32 33 33 35 34 32 30 27 26 28
53 53 53 52 51 50 50 51 52 51 50 47 43 40 40 36 34 33 34 38 46 47 49 48 45 42 39 38 42 40 40 40 39 36 35 38 37 36 33 31 29 28 30
Wind_Direction
350 15 70 266 270 241 67 40 11 19 28 280 121 209 180 149 109 85 117 104 105 125 130 130 128 131 130 125 118 109 111 119 115 117 107 106 112 116 120 127 134 132 128
103 215 221 213 278 348 28 26 348 4 57 89 103 322 186 154 84 131 83 103 110 132 127 113 121 136 126 120 116 114 113 106 109 113 110 115 116 124 119 122 120 112 115
163 183 339 320 256 217 17 347 325 348 313 241 182 316 204 175 128 99 99 98 109 129 120 110 107 122 131 124 120 118 115 116 116 112 117 118 121 119 119 118 116 123 127
248 17 353 326 223 182 203 327 317 301 336 288 271 294 294 209 193 154 138 132 122 132 139 122 119 121 120 121 119 115 114 111 111 115 117 120 118 119 120 120 125 126 127
225 88 52 62 110 151 164 286 293 292 331 321 309 295 268 231 202 203 167 154 150 151 135 137 129 127 119 116 116 114 114 115 114 118 117 117 116 118 119 119 119 127 122
356 147 257 82 74 70 141 263 262 275 320 336 301 279 249 232 227 229 191 159 151 145 141 142 138 136 130 125 120 120 120 121 122 123 121 122 122 125 117 112 111 108 105
49 209 234 233 1 1 359 305 280 268 265 314 288 276 258 217 218 210 202 177 182 155 146 154 149 148 137 130 126 124 122 122 122 118 116 110 104 99 104 109 103 106 114
122 196 207 217 225 234 261 305 348 304 316 290 293 282 272 227 203 217 201 188 188 182 160 158 164 157 149 139 133 129 125 123 118 118 118 116 116 109 103 106 121 126 124
230 237 227 228 225 227 241 257 287 318 305 309 293 267 280 318 217 200 203 201 193 193 174 162 174 167 163 149 135 131 128 130 130 126 120 118 113 111 106 101 100 96 92
343 331 285 238 233 233 246 256 276 343 338 305 291 264 272 290 195 223 228 201 202 195 195 204 183 176 168 168 149 145 144 145 140 139 136 129 122 119 114 106 103 105 103
299 307 278 266 252 242 263 272 290 314 356 341 335 314 260 271 250 276 282 250 204 206 195 201 189 181 183 174 166 167 159 158 150 140 130 122 118 114 109 106 106 97 81
318 9 33 256 255 275 284 237 305 299 25 333 306 305 314 306 262 313 291 255 230 210 212 192 200 183 180 187 178 171 160 153 146 141 138 132 129 136 143 145 172 206 265
350 352 16 359 320 260 312 338 352 325 328 306 311 349 314 336 289 263 267 339 201 216 223 209 204 208 178 185 173 168 157 162 168 160 166 183 221 249 252 256 276 275 270
346 355 353 360 18 6 298 319 317 326 296 286 280 286 281 272 285 290 313 205 195 222 218 208 203 210 203 191 174 175 174 177 179 196 213 236 267 274 272 282 286 281 277
318 327 334 343 352 360 5 316 312 317 308 292 277 277 285 285 278 277 293 320 242 167 179 209 208 212 205 204 198 191 197 198 200 212 238 260 278 280 276 278 280 281 273
301 306 312 322 326 334 341 331 341 331 297 301 305 292 278 279 273 276 269 271 245 228 214 220 212 198 203 211 225 200 209 208 218 230 244 256 262 269 274 277 278 279 282
301 302 305 307 307 311 313 314 312 300 308 305 275 274 273 275 276 271 272 265 252 247 225 216 231 226 213 216 222 232 228 224 225 232 242 253 258 263 272 277 281 280 280
292 295 296 297 300 299 298 295 291 292 288 288 295 267 268 271 268 269 261 261 259 254 238 229 226 222 224 221 230 228 233 233 233 236 243 250 257 266 273 275 278 283 286
287 287 287 288 288 288 286 283 280 281 283 282 279 288 281 262 264 257 247 245 249 244 223 236 236 235 231 225 247 229 235 241 242 245 249 253 256 260 265 271 275 279 282
278 278 279 277 277 279 280 278 276 273 273 276 278 278 285 285 267 259 254 245 245 244 234 227 236 226 224 231 239 234 229 237 243 242 241 256 261 261 263 264 267 273 278
281 282 281 281 279 275 272 271 273 272 267 267 270 272 271 275 276 283 288 278 247 252 255 258 237 242 241 239 233 233 242 248 250 248 242 249 253 256 258 261 260 262 270
284 283 282 282 281 277 271 269 268 266 266 267 269 268 266 267 267 269 268 266 274 255 256 254 251 246 243 249 252 245 241 245 253 255 252 251 252 252 253 254 260 262 266
281 281 280 279 278 276 272 268 267 258 261 269 272 271 268 264 260 260 262 266 261 257 255 253 252 253 251 245 249 252 249 246 243 246 250 253 253 249 252 255 260 264 266
282 280 277 274 273 271 268 267 265 261 260 265 269 272 269 262 256 252 253 254 255 253 255 256 250 250 250 250 249 247 250 253 245 245 245 249 253 254 255 251 257 261 257
279 278 277 274 271 269 265 266 265 263 260 261 269 271 272 265 257 252 249 249 249 250 249 252 254 251 251 252 251 250 251 253 253 255 244 240 246 251 252 251 252 252 255
279 278 278 277 274 270 268 267 267 265 264 263 262 267 269 258 253 254 255 255 249 248 248 247 248 251 252 254 248 251 251 249 250 250 256 248 244 249 250 248 249 248 252